Вернуться в каталог

STARLINK-35666

АктивенСвязьVLEO
NORAD 66222·PAYLOAD·🇺🇸 United States

Запущен Oct 28, 2025 с Vandenberg Space Force Base

Loading…

Ближайшие Пролёты (ближайшие 24 часа)

TLE

СвежийSource: CelesTrak SupGP

Эпоха: Sep 14, 2026, 20:50 UTC

1 66222C 25244S   26257.86854167  .00001940  00000+0  57338-4 0  2572
2 66222  53.1594  69.7372 0001283  85.3769 295.3355 15.34374847    12

Отслеживайте STARLINK-35666 в реальном времени с AllMySat

Download on the App Store